Home   Weather   Mostar   Past weeks

Flag for Bosnia-Herzegovina Past Weather in Mostar, Bosnia-Herzegovina — Yesterday and Last 2 Weeks

Now
50 °F

Partly cloudy.


Feels Like: 50 °F
Forecast: 46 / 54 °F
Wind: 2 mph from Southeast

Location: Mostar

Current Time: Feb 23, 2017 at 7:48:11 pm

Latest Report: Feb 23, 2017 at 7:00 pm


Visibility: 4 mi

Pressure: 30.01 "Hg

Humidity: 76%

Dew Point: 43 °F

Location of MostarLocation

Past Weather in Mostar — Graph

°F

Mostar Temperature Yesterday

Maximum temperature yesterday: 59 °F (at 1:30 pm)
Minimum temperature yesterday: 30 °F (at 6:00 am)
Average temperature yesterday: 46 °F

High & Low Weather Summary for the Past Weeks

 TemperatureHumidityPressure
High68 °F (Feb 16, 3:00 pm)100% (Feb 12, 7:00 am)30.51 "Hg (Feb 12, 7:00 am)
Low25 °F (Feb 21, 6:30 am)15% (Feb 14, 1:00 pm)29.98 "Hg (Feb 8, 6:00 pm)
Average45 °F65%30.21 "Hg
* Reported Feb 8 6:00 pm — Feb 23 6:00 pm, Mostar, Weather by CustomWeather, © 2017

Note: Actual official high and low records may vary slightly from our data, if they occured in-between our weather recording intervals... More about our weather records

Advertising

Mostar Weather History for the Previous 24 Hours

Scroll right to see more
 ConditionsComfort  
Time TempWeatherWind HumidityBarometerVisibility
6:00 pm
Thu, Feb 23
52 °FFog.2 mph72%30.01 "Hg3 mi
5:00 pm52 °FPartly sunny.1 mph72%30.01 "Hg5 mi
4:00 pm54 °FPartly sunny.1 mph63%30.04 "Hg6 mi
3:00 pm54 °FBroken clouds.3 mph63%30.04 "Hg6 mi
2:00 pm54 °FBroken clouds.3 mph67%30.04 "Hg6 mi
1:30 pm54 °FBroken clouds.5 mph67%30.07 "Hg6 mi
1:00 pm52 °FBroken clouds.5 mph72%30.07 "Hg6 mi
12:30 pm52 °FBroken clouds.2 mph67%30.09 "Hg6 mi
12:00 pm50 °FBroken clouds.2 mph76%30.09 "Hg6 mi
11:30 am50 °FBroken clouds.2 mph76%30.09 "Hg6 mi
11:00 am48 °FMore clouds than sun.3 mph82%30.09 "Hg6 mi
10:30 am46 °FMore clouds than sun.2 mph87%30.09 "HgN/A
10:00 am46 °FBroken clouds.2 mph87%30.09 "HgN/A
9:30 am46 °FPartly sunny.2 mph87%30.09 "HgN/A
9:00 am46 °FPartly sunny.1 mph87%30.09 "HgN/A
8:30 am45 °FPartly sunny.2 mph93%30.09 "HgN/A
8:00 am43 °FOvercast.2 mph93%30.09 "HgN/A
7:30 am43 °FPartly sunny.2 mph93%30.09 "Hg5 mi
7:00 am43 °FPartly sunny.5 mph93%30.07 "Hg5 mi
6:00 am43 °FPassing clouds.6 mph93%30.07 "Hg5 mi
5:00 am41 °FPassing clouds.3 mph93%30.07 "Hg6 mi
4:00 am41 °FPassing clouds.2 mph93%30.07 "Hg5 mi
3:00 am39 °FPassing clouds.1 mph93%30.07 "Hg6 mi
2:00 am41 °FPassing clouds.2 mph93%30.09 "Hg5 mi
1:00 am43 °FPassing clouds.3 mph87%30.09 "Hg5 mi
12:00 am46 °FPassing clouds.1 mph82%30.09 "HgN/A
11:00 pm
Wed, Feb 22
48 °FPassing clouds.2 mph82%30.09 "HgN/A
10:00 pm48 °FPassing clouds.5 mph82%30.07 "HgN/A
9:00 pm50 °FPassing clouds.2 mph76%30.07 "HgN/A
8:00 pm52 °FPassing clouds.2 mph72%30.07 "HgN/A
7:00 pm54 °FPassing clouds.6 mph67%30.07 "HgN/A
Weather by CustomWeather, © 2017

See weather overviewHow to use our weather pages